| time (UTC) | temp F | wind direction | speed MPH | gust MPH | rain 1hr in | rain 24hr in | rain mn in | humidity % | barometer mb |
| 20260509182503 | 77 | 0 | 7.0 | 16.0 | 0.00 | 0.00 | 0.00 | 25 | 1003.3 |
| 20260509182004 | 77 | 0 | 9.0 | 15.0 | 0.00 | 0.00 | 0.00 | 25 | 1003.2 |
| 20260509181505 | 78 | 0 | 2.0 | 6.0 | 0.00 | 0.00 | 0.00 | 25 | 1003.2 |
| 20260509181004 | 78 | 0 | 2.0 | 7.0 | 0.00 | 0.00 | 0.00 | 22 | 1003.2 |
| 20260509180004 | 78 | 62 | 1.0 | 7.0 | 0.00 | 0.00 | 0.00 | 21 | 1003.2 |
| 20260509175504 | 78 | 119 | 2.0 | 6.0 | 0.00 | 0.00 | 0.00 | 18 | 1003.2 |
| 20260509175004 | 79 | 13 | 2.0 | 8.0 | 0.00 | 0.00 | 0.00 | 19 | 1003.2 |
| 20260509174504 | 79 | 2 | 2.0 | 5.0 | 0.00 | 0.00 | 0.00 | 18 | 1003.3 |
| 20260509174004 | 79 | 60 | 2.0 | 7.0 | 0.00 | 0.00 | 0.00 | 20 | 1003.3 |
| 20260509173504 | 79 | 332 | 2.0 | 9.0 | 0.00 | 0.00 | 0.00 | 20 | 1003.3 |
| 20260509173004 | 78 | 0 | 2.0 | 9.0 | 0.00 | 0.00 | 0.00 | 20 | 1003.4 |
| 20260509172504 | 78 | 0 | 4.0 | 10.0 | 0.00 | 0.00 | 0.00 | 19 | 1003.3 |
| 20260509172003 | 78 | 0 | 2.0 | 6.0 | 0.00 | 0.00 | 0.00 | 20 | 1003.4 |
| 20260509171504 | 77 | 0 | 3.0 | 13.0 | 0.00 | 0.00 | 0.00 | 23 | 1003.4 |
| 20260509171004 | 77 | 0 | 3.0 | 10.0 | 0.00 | 0.00 | 0.00 | 21 | 1003.3 |
| 20260509170504 | 77 | 0 | 5.0 | 9.0 | 0.00 | 0.00 | 0.00 | 21 | 1003.5 |
| 20260509170004 | 77 | 0 | 2.0 | 9.0 | 0.00 | 0.00 | 0.00 | 20 | 1003.4 |
| 20260509164504 | 76 | 0 | 4.0 | 10.0 | 0.00 | 0.00 | 0.00 | 23 | 1003.6 |
| 20260509164004 | 76 | 0 | 3.0 | 10.0 | 0.00 | 0.00 | 0.00 | 22 | 1003.7 |
| 20260509163504 | 76 | 0 | 1.0 | 8.0 | 0.00 | 0.00 | 0.00 | 22 | 1003.7 |
| 20260509163004 | 76 | 5 | 1.0 | 3.0 | 0.00 | 0.00 | 0.00 | 24 | 1003.8 |
| 20260509162503 | 75 | 40 | 2.0 | 5.0 | 0.00 | 0.00 | 0.00 | 25 | 1003.7 |
| 20260509162004 | 75 | 0 | 2.0 | 5.0 | 0.00 | 0.00 | 0.00 | 22 | 1003.9 |
| 20260509161504 | 75 | 0 | 1.0 | 3.0 | 0.00 | 0.00 | 0.00 | 20 | 1003.9 |
| 20260509161004 | 74 | 337 | 3.0 | 12.0 | 0.00 | 0.00 | 0.00 | 21 | 1004.0 |
| 20260509160003 | 73 | 1 | 0.0 | 3.0 | 0.00 | 0.00 | 0.00 | 22 | 1004.1 |
| 20260509155504 | 72 | 216 | 1.0 | 6.0 | 0.00 | 0.00 | 0.00 | 20 | 1004.2 |
| 20260509155003 | 72 | 319 | 2.0 | 3.0 | 0.00 | 0.00 | 0.00 | 20 | 1004.1 |
| 20260509154504 | 71 | 0 | 0.0 | 2.0 | 0.00 | 0.00 | 0.00 | 23 | 1004.2 |
| 20260509153504 | 70 | 0 | 1.0 | 3.0 | 0.00 | 0.00 | 0.00 | 22 | 1004.1 |
| 20260509153004 | 69 | 0 | 3.0 | 8.0 | 0.00 | 0.00 | 0.00 | 23 | 1004.4 |
| 20260509152503 | 68 | 0 | 3.0 | 6.0 | 0.00 | 0.00 | 0.00 | 24 | 1004.5 |
| 20260509152004 | 67 | 0 | 2.0 | 8.0 | 0.00 | 0.00 | 0.00 | 25 | 1004.5 |
| 20260509151504 | 66 | 0 | 2.0 | 9.0 | 0.00 | 0.00 | 0.00 | 25 | 1004.5 |
| 20260509150504 | 63 | 0 | 2.0 | 10.0 | 0.00 | 0.00 | 0.00 | 28 | 1004.5 |
| 20260509150004 | 62 | 0 | 1.0 | 8.0 | 0.00 | 0.00 | 0.00 | 29 | 1004.5 |
| 20260509145504 | 62 | 0 | 1.0 | 6.0 | 0.00 | 0.00 | 0.00 | 30 | 1004.5 |
| 20260509145004 | 61 | 0 | 1.0 | 5.0 | 0.00 | 0.00 | 0.00 | 32 | 1004.6 |
| 20260509144504 | 60 | 0 | 1.0 | 9.0 | 0.00 | 0.00 | 0.00 | 34 | 1004.7 |
| 20260509144003 | 58 | 0 | 1.0 | 6.0 | 0.00 | 0.00 | 0.00 | 36 | 1004.8 |
| 20260509143504 | 57 | 0 | 2.0 | 6.0 | 0.00 | 0.00 | 0.00 | 37 | 1004.8 |
| 20260509143004 | 56 | 0 | 2.0 | 8.0 | 0.00 | 0.00 | 0.00 | 40 | 1004.8 |
| 20260509142504 | 54 | 0 | 3.0 | 12.0 | 0.00 | 0.00 | 0.00 | 44 | 1004.6 |
| 20260509142003 | 53 | 0 | 1.0 | 3.0 | 0.00 | 0.00 | 0.00 | 49 | 1004.6 |
| 20260509141503 | 52 | 0 | 1.0 | 3.0 | 0.00 | 0.00 | 0.00 | 52 | 1004.6 |
| 20260509141003 | 52 | 0 | 2.0 | 6.0 | 0.00 | 0.00 | 0.00 | 52 | 1004.6 |
| 20260509140504 | 51 | 0 | 1.0 | 3.0 | 0.00 | 0.00 | 0.00 | 63 | 1004.5 |
| 20260509140005 | 51 | 0 | 0.0 | 2.0 | 0.00 | 0.00 | 0.00 | 66 | 1004.5 |
| 20260509135504 | 51 | 0 | 0.0 | 0.0 | 0.00 | 0.00 | 0.00 | 66 | 1004.4 |
| 20260509135004 | 51 | 0 | 0.0 | 0.0 | 0.00 | 0.00 | 0.00 | 68 | 1004.4 |
| 20260509133503 | 50 | 0 | 0.0 | 0.0 | 0.00 | 0.00 | 0.00 | 66 | 1004.4 |
| 20260509133004 | 50 | 0 | 0.0 | 0.0 | 0.00 | 0.00 | 0.00 | 66 | 1004.3 |
| 20260509132503 | 50 | 0 | 1.0 | 2.0 | 0.00 | 0.00 | 0.00 | 65 | 1004.4 |
| 20260509131004 | 50 | 0 | 1.0 | 3.0 | 0.00 | 0.00 | 0.00 | 63 | 1004.3 |
| 20260509130503 | 50 | 0 | 0.0 | 0.0 | 0.00 | 0.00 | 0.00 | 62 | 1004.2 |
| 20260509124503 | 50 | 0 | 0.0 | 0.0 | 0.00 | 0.00 | 0.00 | 62 | 1004.0 |
| 20260509124004 | 51 | 0 | 0.0 | 0.0 | 0.00 | 0.00 | 0.00 | 61 | 1004.0 |
| 20260509123503 | 51 | 0 | 0.0 | 0.0 | 0.00 | 0.00 | 0.00 | 61 | 1004.0 |
| 20260509122504 | 51 | 0 | 0.0 | 0.0 | 0.00 | 0.00 | 0.00 | 59 | 1003.9 |
| 20260509121504 | 52 | 0 | 0.0 | 1.0 | 0.00 | 0.00 | 0.00 | 58 | 1003.9 |
| 20260509121003 | 52 | 0 | 0.0 | 1.0 | 0.00 | 0.00 | 0.00 | 57 | 1003.8 |
| 20260509120503 | 52 | 0 | 0.0 | 0.0 | 0.00 | 0.00 | 0.00 | 56 | 1003.9 |
| 20260509115505 | 53 | 0 | 0.0 | 2.0 | 0.00 | 0.00 | 0.00 | 54 | 1003.7 |
| 20260509115005 | 53 | 0 | 0.0 | 0.0 | 0.00 | 0.00 | 0.00 | 53 | 1003.5 |
| 20260509114505 | 53 | 0 | 0.0 | 1.0 | 0.00 | 0.00 | 0.00 | 52 | 1003.5 |
| 20260509114005 | 54 | 0 | 0.0 | 1.0 | 0.00 | 0.00 | 0.00 | 51 | 1003.5 |
| 20260509113505 | 54 | 0 | 0.0 | 0.0 | 0.00 | 0.00 | 0.00 | 50 | 1003.4 |
| 20260509112505 | 55 | 0 | 0.0 | 1.0 | 0.00 | 0.00 | 0.00 | 49 | 1003.2 |
| 20260509111505 | 55 | 0 | 0.0 | 1.0 | 0.00 | 0.00 | 0.00 | 49 | 1003.1 |
| 20260509111005 | 55 | 0 | 0.0 | 1.0 | 0.00 | 0.00 | 0.00 | 49 | 1003.2 |
| 20260509110505 | 55 | 0 | 1.0 | 3.0 | 0.00 | 0.00 | 0.00 | 48 | 1003.2 |
| 20260509110005 | 54 | 0 | 2.0 | 8.0 | 0.00 | 0.00 | 0.00 | 48 | 1003.1 |
| 20260509105504 | 54 | 0 | 2.0 | 5.0 | 0.00 | 0.00 | 0.00 | 46 | 1003.1 |
| 20260509105005 | 54 | 0 | 2.0 | 3.0 | 0.00 | 0.00 | 0.00 | 45 | 1003.1 |
| 20260509104505 | 53 | 0 | 1.0 | 9.0 | 0.00 | 0.00 | 0.00 | 45 | 1003.1 |
| 20260509104005 | 53 | 0 | 4.0 | 12.0 | 0.00 | 0.00 | 0.00 | 46 | 1003.1 |
| 20260509103005 | 51 | 0 | 2.0 | 5.0 | 0.00 | 0.00 | 0.00 | 48 | 1003.0 |
| 20260509102005 | 50 | 0 | 3.0 | 8.0 | 0.00 | 0.00 | 0.00 | 51 | 1003.0 |
| 20260509101505 | 49 | 0 | 1.0 | 3.0 | 0.00 | 0.00 | 0.00 | 54 | 1003.0 |
| 20260509101005 | 49 | 0 | 2.0 | 5.0 | 0.00 | 0.00 | 0.00 | 56 | 1003.1 |
| 20260509100504 | 49 | 0 | 2.0 | 3.0 | 0.00 | 0.00 | 0.00 | 59 | 1003.1 |
| 20260509100006 | 49 | 0 | 1.0 | 3.0 | 0.00 | 0.00 | 0.00 | 64 | 1003.1 |
| 20260509095005 | 49 | 0 | 1.0 | 5.0 | 0.00 | 0.00 | 0.00 | 71 | 1003.2 |
| 20260509094505 | 49 | 0 | 1.0 | 2.0 | 0.00 | 0.00 | 0.00 | 72 | 1003.2 |
| 20260509094005 | 49 | 0 | 0.0 | 3.0 | 0.00 | 0.00 | 0.00 | 72 | 1003.2 |
| 20260509093504 | 50 | 0 | 0.0 | 1.0 | 0.00 | 0.00 | 0.00 | 71 | 1003.2 |
| 20260509092504 | 50 | 0 | 0.0 | 0.0 | 0.00 | 0.00 | 0.00 | 69 | 1003.1 |
| 20260509092005 | 50 | 0 | 0.0 | 1.0 | 0.00 | 0.00 | 0.00 | 69 | 1003.1 |
| 20260509091505 | 50 | 0 | 0.0 | 0.0 | 0.00 | 0.00 | 0.00 | 68 | 1003.0 |
| 20260509091005 | 51 | 0 | 0.0 | 1.0 | 0.00 | 0.00 | 0.00 | 68 | 1002.9 |
| 20260509090005 | 51 | 0 | 0.0 | 1.0 | 0.00 | 0.00 | 0.00 | 67 | 1002.8 |
| 20260509085505 | 51 | 0 | 0.0 | 0.0 | 0.00 | 0.00 | 0.00 | 67 | 1002.7 |
| 20260509085005 | 51 | 0 | 0.0 | 0.0 | 0.00 | 0.00 | 0.00 | 67 | 1002.7 |
| 20260509084505 | 51 | 0 | 0.0 | 2.0 | 0.00 | 0.00 | 0.00 | 67 | 1002.8 |
| 20260509084005 | 51 | 0 | 1.0 | 3.0 | 0.00 | 0.00 | 0.00 | 67 | 1002.7 |
| 20260509083005 | 52 | 0 | 0.0 | 1.0 | 0.00 | 0.00 | 0.00 | 66 | 1002.7 |
| 20260509082504 | 52 | 0 | 0.0 | 0.0 | 0.00 | 0.00 | 0.00 | 66 | 1002.9 |
| 20260509082004 | 52 | 0 | 0.0 | 0.0 | 0.00 | 0.00 | 0.00 | 65 | 1002.9 |
| 20260509081005 | 52 | 0 | 0.0 | 0.0 | 0.00 | 0.00 | 0.00 | 64 | 1003.1 |
| 20260509080505 | 52 | 0 | 0.0 | 0.0 | 0.00 | 0.00 | 0.00 | 64 | 1003.1 |
| 20260509075505 | 53 | 0 | 0.0 | 2.0 | 0.00 | 0.00 | 0.00 | 64 | 1003.3 |
| 20260509075005 | 53 | 0 | 0.0 | 2.0 | 0.00 | 0.00 | 0.00 | 63 | 1003.2 |
| 20260509074504 | 53 | 0 | 0.0 | 1.0 | 0.00 | 0.00 | 0.00 | 63 | 1003.3 |
| 20260509074005 | 53 | 0 | 0.0 | 1.0 | 0.00 | 0.00 | 0.00 | 63 | 1003.3 |
| 20260509073504 | 53 | 0 | 0.0 | 1.0 | 0.00 | 0.00 | 0.00 | 62 | 1003.4 |
| 20260509073005 | 54 | 0 | 0.0 | 2.0 | 0.00 | 0.00 | 0.00 | 62 | 1003.4 |
| 20260509072504 | 54 | 0 | 0.0 | 1.0 | 0.00 | 0.00 | 0.00 | 62 | 1003.4 |
| 20260509072005 | 54 | 0 | 0.0 | 1.0 | 0.00 | 0.00 | 0.00 | 62 | 1003.5 |
| 20260509071504 | 54 | 0 | 0.0 | 1.0 | 0.00 | 0.00 | 0.00 | 61 | 1003.5 |
| 20260509070505 | 54 | 0 | 0.0 | 1.0 | 0.00 | 0.00 | 0.00 | 61 | 1003.6 |
| 20260509070004 | 54 | 0 | 0.0 | 1.0 | 0.00 | 0.00 | 0.00 | 61 | 1003.7 |
| 20260509065505 | 54 | 0 | 0.0 | 2.0 | 0.00 | 0.00 | 0.00 | 62 | 1003.8 |
| 20260509065005 | 55 | 0 | 0.0 | 1.0 | 0.00 | 0.00 | 0.00 | 62 | 1003.9 |
| 20260509064504 | 55 | 0 | 0.0 | 1.0 | 0.00 | 0.00 | 0.00 | 62 | 1003.9 |
| 20260509064005 | 55 | 0 | 1.0 | 3.0 | 0.00 | 0.00 | 0.00 | 61 | 1004.0 |
| 20260509063504 | 55 | 0 | 1.0 | 3.0 | 0.00 | 0.00 | 0.00 | 61 | 1004.0 |
| 20260509063005 | 55 | 0 | 1.0 | 3.0 | 0.00 | 0.00 | 0.00 | 60 | 1004.0 |
| 20260509062005 | 55 | 0 | 2.0 | 5.0 | 0.00 | 0.00 | 0.00 | 59 | 1004.1 |
| 20260509061005 | 56 | 0 | 2.0 | 5.0 | 0.00 | 0.00 | 0.00 | 58 | 1004.4 |
| 20260509060505 | 56 | 0 | 1.0 | 3.0 | 0.00 | 0.00 | 0.00 | 57 | 1004.5 |
| 20260509060005 | 56 | 0 | 0.0 | 3.0 | 0.00 | 0.00 | 0.00 | 56 | 1004.5 |
| 20260509055504 | 56 | 0 | 1.0 | 2.0 | 0.00 | 0.00 | 0.00 | 56 | 1004.5 |
| 20260509055005 | 57 | 0 | 0.0 | 5.0 | 0.00 | 0.00 | 0.00 | 55 | 1004.5 |
| 20260509054505 | 57 | 0 | 1.0 | 6.0 | 0.00 | 0.00 | 0.00 | 55 | 1004.5 |
| 20260509054004 | 57 | 0 | 2.0 | 5.0 | 0.00 | 0.00 | 0.00 | 55 | 1004.5 |
| 20260509053505 | 57 | 0 | 0.0 | 6.0 | 0.00 | 0.00 | 0.00 | 55 | 1004.5 |
| 20260509053005 | 57 | 0 | 1.0 | 3.0 | 0.00 | 0.00 | 0.00 | 54 | 1004.6 |
| 20260509052505 | 57 | 0 | 1.0 | 5.0 | 0.00 | 0.00 | 0.00 | 54 | 1004.7 |
| 20260509052005 | 58 | 0 | 1.0 | 6.0 | 0.00 | 0.00 | 0.00 | 54 | 1004.7 |
| 20260509051504 | 58 | 0 | 0.0 | 3.0 | 0.00 | 0.00 | 0.00 | 53 | 1004.7 |
| 20260509050504 | 58 | 0 | 1.0 | 3.0 | 0.00 | 0.00 | 0.00 | 53 | 1004.8 |
| 20260509050004 | 58 | 0 | 1.0 | 5.0 | 0.00 | 0.00 | 0.00 | 52 | 1005.0 |
| 20260509045505 | 58 | 0 | 1.0 | 5.0 | 0.00 | 0.00 | 0.00 | 52 | 1005.1 |
| 20260509045005 | 58 | 0 | 0.0 | 5.0 | 0.00 | 0.00 | 0.00 | 51 | 1005.3 |
| 20260509044504 | 58 | 0 | 0.0 | 3.0 | 0.00 | 0.00 | 0.00 | 51 | 1005.5 |
| 20260509044005 | 59 | 0 | 0.0 | 1.0 | 0.00 | 0.00 | 0.00 | 50 | 1005.5 |
| 20260509043504 | 59 | 0 | 0.0 | 2.0 | 0.00 | 0.00 | 0.00 | 50 | 1005.5 |
| 20260509043005 | 59 | 0 | 0.0 | 1.0 | 0.00 | 0.00 | 0.00 | 50 | 1005.5 |
| 20260509042504 | 59 | 0 | 0.0 | 2.0 | 0.00 | 0.00 | 0.00 | 49 | 1005.6 |
| 20260509042005 | 60 | 0 | 0.0 | 2.0 | 0.00 | 0.00 | 0.00 | 49 | 1005.6 |
| 20260509041004 | 60 | 0 | 0.0 | 0.0 | 0.00 | 0.00 | 0.00 | 48 | 1005.7 |
| 20260509040504 | 60 | 0 | 0.0 | 0.0 | 0.00 | 0.00 | 0.00 | 47 | 1005.7 |
| 20260509035505 | 61 | 0 | 0.0 | 0.0 | 0.00 | 0.00 | 0.00 | 46 | 1005.7 |
| 20260509035004 | 61 | 0 | 0.0 | 0.0 | 0.00 | 0.00 | 0.00 | 46 | 1005.7 |
| 20260509034504 | 61 | 0 | 0.0 | 1.0 | 0.00 | 0.00 | 0.00 | 46 | 1005.8 |
| 20260509034005 | 61 | 0 | 0.0 | 1.0 | 0.00 | 0.00 | 0.00 | 45 | 1006.0 |
| 20260509033005 | 62 | 0 | 1.0 | 2.0 | 0.00 | 0.00 | 0.00 | 45 | 1005.9 |
| 20260509032504 | 62 | 0 | 1.0 | 2.0 | 0.00 | 0.00 | 0.00 | 44 | 1005.8 |
| 20260509032005 | 62 | 0 | 1.0 | 2.0 | 0.00 | 0.00 | 0.00 | 44 | 1005.8 |
| 20260509031504 | 62 | 0 | 0.0 | 1.0 | 0.00 | 0.00 | 0.00 | 44 | 1005.8 |
| 20260509030504 | 62 | 0 | 1.0 | 2.0 | 0.00 | 0.00 | 0.00 | 43 | 1005.4 |
| 20260509025504 | 63 | 0 | 1.0 | 3.0 | 0.00 | 0.00 | 0.00 | 42 | 1005.3 |
| 20260509024504 | 63 | 0 | 2.0 | 5.0 | 0.00 | 0.00 | 0.00 | 42 | 1005.3 |
| 20260509024004 | 63 | 0 | 1.0 | 5.0 | 0.00 | 0.00 | 0.00 | 41 | 1005.2 |
| 20260509023004 | 64 | 0 | 0.0 | 5.0 | 0.00 | 0.00 | 0.00 | 41 | 1005.0 |
| 20260509022504 | 64 | 0 | 1.0 | 5.0 | 0.00 | 0.00 | 0.00 | 41 | 1005.1 |
| 20260509022004 | 64 | 0 | 0.0 | 2.0 | 0.00 | 0.00 | 0.00 | 41 | 1005.0 |
| 20260509021004 | 65 | 0 | 0.0 | 0.0 | 0.00 | 0.00 | 0.00 | 40 | 1004.7 |
| 20260509020504 | 65 | 0 | 0.0 | 1.0 | 0.00 | 0.00 | 0.00 | 39 | 1004.7 |
| 20260509015505 | 66 | 0 | 0.0 | 1.0 | 0.00 | 0.00 | 0.00 | 39 | 1004.6 |
| 20260509015004 | 66 | 0 | 0.0 | 2.0 | 0.00 | 0.00 | 0.00 | 38 | 1004.6 |
| 20260509014004 | 67 | 0 | 0.0 | 2.0 | 0.00 | 0.00 | 0.00 | 38 | 1004.5 |
| 20260509013504 | 67 | 0 | 0.0 | 2.0 | 0.00 | 0.00 | 0.00 | 37 | 1004.5 |
| 20260509013005 | 68 | 0 | 1.0 | 3.0 | 0.00 | 0.00 | 0.00 | 37 | 1004.5 |
| 20260509012004 | 69 | 0 | 0.0 | 2.0 | 0.00 | 0.00 | 0.00 | 36 | 1004.5 |
| 20260509011504 | 69 | 0 | 0.0 | 1.0 | 0.00 | 0.00 | 0.00 | 36 | 1004.4 |
| 20260509011004 | 69 | 0 | 0.0 | 2.0 | 0.00 | 0.00 | 0.00 | 35 | 1004.4 |
| 20260509010504 | 70 | 0 | 0.0 | 2.0 | 0.00 | 0.00 | 0.00 | 35 | 1004.4 |
| 20260509010005 | 70 | 0 | 0.0 | 3.0 | 0.00 | 0.00 | 0.00 | 36 | 1004.3 |
| 20260509005504 | 70 | 0 | 1.0 | 5.0 | 0.00 | 0.00 | 0.00 | 35 | 1004.4 |
| 20260509005004 | 70 | 0 | 0.0 | 3.0 | 0.00 | 0.00 | 0.00 | 35 | 1004.3 |
| 20260509004504 | 71 | 0 | 1.0 | 3.0 | 0.00 | 0.00 | 0.00 | 35 | 1004.2 |
| 20260509004004 | 71 | 0 | 1.0 | 2.0 | 0.00 | 0.00 | 0.00 | 35 | 1004.4 |
| 20260509003505 | 71 | 0 | 1.0 | 6.0 | 0.00 | 0.00 | 0.00 | 35 | 1004.4 |
| 20260509003005 | 71 | 0 | 1.0 | 3.0 | 0.00 | 0.00 | 0.00 | 35 | 1004.4 |
| 20260509002504 | 71 | 0 | 1.0 | 3.0 | 0.00 | 0.00 | 0.00 | 35 | 1004.4 |
| 20260509002004 | 71 | 0 | 1.0 | 3.0 | 0.00 | 0.00 | 0.00 | 35 | 1004.3 |
| 20260509001504 | 71 | 0 | 0.0 | 2.0 | 0.00 | 0.00 | 0.00 | 34 | 1004.3 |
| 20260509001004 | 71 | 0 | 1.0 | 3.0 | 0.00 | 0.00 | 0.00 | 35 | 1004.3 |
| 20260509000504 | 71 | 0 | 1.0 | 3.0 | 0.00 | 0.00 | 0.00 | 35 | 1004.4 |
| 20260509000004 | 71 | 0 | 1.0 | 3.0 | 0.00 | 0.00 | 0.00 | 35 | 1004.4 |
| 20260508235505 | 71 | 0 | 0.0 | 3.0 | 0.00 | 0.00 | 0.00 | 35 | 1004.4 |
| 20260508235004 | 71 | 0 | 2.0 | 8.0 | 0.00 | 0.00 | 0.00 | 35 | 1004.4 |
| 20260508234004 | 71 | 0 | 1.0 | 3.0 | 0.00 | 0.00 | 0.00 | 35 | 1004.4 |
| 20260508233004 | 71 | 0 | 2.0 | 5.0 | 0.00 | 0.00 | 0.00 | 34 | 1004.5 |
| 20260508231504 | 71 | 0 | 2.0 | 3.0 | 0.00 | 0.00 | 0.00 | 34 | 1004.3 |
| 20260508231004 | 71 | 0 | 2.0 | 9.0 | 0.00 | 0.00 | 0.00 | 35 | 1004.3 |
| 20260508230504 | 71 | 0 | 5.0 | 8.0 | 0.00 | 0.00 | 0.00 | 35 | 1004.4 |
| 20260508230005 | 71 | 0 | 4.0 | 6.0 | 0.00 | 0.00 | 0.00 | 35 | 1004.5 |
| 20260508225504 | 70 | 0 | 2.0 | 8.0 | 0.00 | 0.00 | 0.00 | 34 | 1004.4 |
| 20260508224504 | 70 | 0 | 1.0 | 3.0 | 0.00 | 0.00 | 0.00 | 36 | 1004.6 |
| 20260508224004 | 71 | 0 | 2.0 | 5.0 | 0.00 | 0.00 | 0.00 | 35 | 1004.7 |
| 20260508222504 | 71 | 0 | 1.0 | 10.0 | 0.00 | 0.00 | 0.00 | 35 | 1004.7 |
| 20260508222004 | 71 | 0 | 2.0 | 10.0 | 0.00 | 0.00 | 0.00 | 34 | 1004.7 |
| 20260508221504 | 72 | 0 | 3.0 | 6.0 | 0.00 | 0.00 | 0.00 | 34 | 1004.9 |
| 20260508221005 | 72 | 0 | 2.0 | 5.0 | 0.00 | 0.00 | 0.00 | 35 | 1005.0 |
| 20260508220504 | 71 | 0 | 2.0 | 8.0 | 0.00 | 0.00 | 0.00 | 36 | 1004.9 |
| 20260508220004 | 71 | 0 | 0.0 | 3.0 | 0.00 | 0.00 | 0.00 | 36 | 1004.9 |
| 20260508215004 | 71 | 0 | 3.0 | 13.0 | 0.00 | 0.00 | 0.00 | 37 | 1004.9 |
| 20260508214504 | 71 | 0 | 1.0 | 3.0 | 0.00 | 0.00 | 0.00 | 36 | 1005.0 |
| 20260508214004 | 70 | 0 | 3.0 | 8.0 | 0.00 | 0.00 | 0.00 | 38 | 1005.0 |
| 20260508213504 | 70 | 0 | 3.0 | 6.0 | 0.00 | 0.00 | 0.00 | 38 | 1005.0 |
| 20260508213004 | 70 | 0 | 0.0 | 3.0 | 0.00 | 0.00 | 0.00 | 38 | 1005.2 |
| 20260508212005 | 70 | 0 | 2.0 | 6.0 | 0.00 | 0.00 | 0.00 | 38 | 1005.3 |
| 20260508211504 | 70 | 0 | 2.0 | 8.0 | 0.00 | 0.00 | 0.00 | 38 | 1005.4 |
| 20260508211004 | 71 | 0 | 4.0 | 8.0 | 0.00 | 0.00 | 0.00 | 37 | 1005.3 |
| 20260508210504 | 71 | 0 | 4.0 | 8.0 | 0.00 | 0.00 | 0.00 | 38 | 1005.4 |
| 20260508210004 | 71 | 0 | 1.0 | 3.0 | 0.00 | 0.00 | 0.00 | 37 | 1005.5 |
| 20260508205504 | 71 | 0 | 0.0 | 9.0 | 0.00 | 0.00 | 0.00 | 38 | 1005.5 |
| 20260508205004 | 71 | 0 | 2.0 | 6.0 | 0.00 | 0.00 | 0.00 | 38 | 1005.7 |
| 20260508204504 | 70 | 0 | 3.0 | 6.0 | 0.00 | 0.00 | 0.00 | 38 | 1005.8 |
| 20260508204005 | 70 | 0 | 3.0 | 9.0 | 0.00 | 0.00 | 0.00 | 41 | 1005.8 |
| 20260508203504 | 70 | 0 | 5.0 | 13.0 | 0.00 | 0.00 | 0.00 | 39 | 1005.8 |
| 20260508203004 | 70 | 0 | 1.0 | 5.0 | 0.00 | 0.00 | 0.00 | 38 | 1005.8 |
| 20260508202504 | 70 | 0 | 3.0 | 6.0 | 0.00 | 0.00 | 0.00 | 39 | 1005.9 |
| 20260508202004 | 70 | 0 | 3.0 | 10.0 | 0.00 | 0.00 | 0.00 | 39 | 1005.9 |
| 20260508201504 | 70 | 0 | 2.0 | 5.0 | 0.00 | 0.00 | 0.00 | 38 | 1006.1 |
| 20260508201004 | 70 | 0 | 2.0 | 9.0 | 0.00 | 0.00 | 0.00 | 40 | 1006.3 |
| 20260508200504 | 70 | 0 | 1.0 | 5.0 | 0.00 | 0.00 | 0.00 | 38 | 1006.4 |
| 20260508195504 | 69 | 0 | 2.0 | 6.0 | 0.00 | 0.00 | 0.00 | 40 | 1006.7 |
| 20260508194504 | 69 | 0 | 1.0 | 3.0 | 0.00 | 0.00 | 0.00 | 40 | 1006.7 |
| 20260508194004 | 69 | 0 | 1.0 | 3.0 | 0.00 | 0.00 | 0.00 | 39 | 1006.9 |
| 20260508193005 | 69 | 0 | 2.0 | 5.0 | 0.00 | 0.00 | 0.00 | 40 | 1007.1 |
| 20260508192504 | 68 | 0 | 1.0 | 3.0 | 0.00 | 0.00 | 0.00 | 39 | 1007.1 |
| 20260508191504 | 68 | 0 | 1.0 | 6.0 | 0.00 | 0.00 | 0.00 | 41 | 1007.3 |
| 20260508191005 | 68 | 0 | 2.0 | 5.0 | 0.00 | 0.00 | 0.00 | 40 | 1007.3 |
| 20260508190504 | 68 | 0 | 1.0 | 3.0 | 0.00 | 0.00 | 0.00 | 41 | 1007.2 |
| 20260508190004 | 68 | 0 | 1.0 | 3.0 | 0.00 | 0.00 | 0.00 | 40 | 1007.4 |
| 20260508185504 | 68 | 0 | 3.0 | 6.0 | 0.00 | 0.00 | 0.00 | 39 | 1007.5 |
| 20260508185004 | 68 | 0 | 2.0 | 8.0 | 0.00 | 0.00 | 0.00 | 40 | 1007.5 |
| 20260508184504 | 68 | 0 | 1.0 | 6.0 | 0.00 | 0.00 | 0.00 | 42 | 1007.6 |
| 20260508183504 | 68 | 0 | 1.0 | 6.0 | 0.00 | 0.00 | 0.00 | 40 | 1007.6 |
| 20260508183004 | 68 | 0 | 3.0 | 8.0 | 0.00 | 0.00 | 0.00 | 41 | 1007.7 |